Location: Arleux
(50.3632°N, 2.8721°E)
Time: 11:07:50
(UTC+00:00)

Cosmos 1666 - Pass Details

Date: 15 December 2019
Orbit: 498 x 521 km, 82.5° (Epoch: 25 January)

Event Time Altitude Azimuth Distance (km) Brightness Sun altitude
Rises 05:41:35 0° 173° (S) 2,617 6.6 -18.0°
Reaches altitude 10° 05:43:46 10° 167° (SSE) 1,732 5.7 -17.6°
Maximum altitude 05:47:23 44° 94° (E) 714 3.9 -17.1°
Drops below altitude 10° 05:51:01 10° 22° (NNE) 1,734 5.4 -16.5°
Sets 05:53:12 0° 16° (NNE) 2,621 6.3 -16.2°
